[[{"header":{"parameterUnit":"m.s-1","parameterCategory":1,"la1":30.2991,"la2":30.254,"lo1":-89.0895,"lo2":-89.0444,"dy":0.0017,"dx":0.0017,"nx":28,"ny":28,"refTime":"2023-04-03T21:00:00:Z","depth":0,"parameterNumber":2,"parameterNumberName":"U-component_of_WINDS"},"data":[0,0,0,0,0,0,0,0,0,0,0,0,0,0,0,0,0,0,0,0,0,0,0,0,0,0,0,0,0,0,0,0,0,0,0,0,0,0,0,0,0,0,0,0,0,0,0,0,0,0,0,0,0,0,0,0,0,0,-2.5569,-2.557,0,-2.5623,-2.5624,-2.5624,-2.5636,-2.5635,-2.5635,-2.5635,-2.569,-2.5691,-2.5693,0,0,0,0,0,0,0,0,0,0,0,0,0,-2.5477,-2.5479,-2.5569,-2.557,-2.5571,-2.5623,-2.5624,-2.5624,-2.5636,-2.5635,-2.5635,-2.5634,-2.5689,-2.5691,-2.5693,0,0,0,0,0,0,0,0,0,0,0,0,0,-2.5523,-2.5479,-2.5569,-2.5583,-2.5584,-2.5623,-2.5624,-2.5625,-2.5636,-2.5635,-2.5635,-2.5634,-2.5688,-2.5691,-2.5694,-2.5723,0,0,-2.5702,-2.5703,0,0,0,0,0,0,0,0,-2.552,-2.5526,-2.558,-2.5582,-2.5584,-2.5622,-2.5612,-2.5658,-2.5636,-2.5616,-2.5635,-2.5634,-2.5668,-2.5672,-2.5683,-2.5725,-2.5728,-2.5702,-2.5704,-2.5705,-2.5706,0,0,0,0,0,0,0,-2.5517,-2.5524,-2.5591,-2.5581,-2.5583,-2.5586,-2.5592,-2.562,-2.5645,-2.5618,-2.5619,-2.5625,-2.5669,-2.5681,-2.5685,-2.5728,-2.5702,-2.5705,-2.5706,-2.5708,-2.5797,-2.5798,0,0,0,0,0,0,-2.5511,-2.5521,-2.5589,-2.5592,-2.555,-2.5588,-2.5595,-2.561,-2.5644,-2.5649,-2.5626,-2.5626,-2.5676,-2.5682,-2.5687,-2.5723,-2.5705,-2.5708,-2.5709,-2.5796,-2.5797,-2.5798,0,0,0,0,0,0,-2.5509,-2.5517,-2.5587,-2.5557,-2.5566,-2.5591,-2.5608,-2.5612,-2.5624,-2.565,-2.5655,-2.5634,-2.5676,-2.5683,-2.5714,-2.5725,-2.5709,-2.5712,-2.5796,-2.5797,-2.5798,-2.5795,0,0,0,0,0,0,-2.5507,-2.5517,-2.5527,-2.5557,-2.5568,-2.5612,-2.5609,-2.5613,-2.5629,-2.5629,-2.5659,-2.5663,-2.5676,-2.571,-2.5717,-2.5728,-2.5714,-2.5795,-2.5796,-2.5797,-2.5794,-2.5796,-2.5797,0,0,0,0,0,-2.5503,-2.5524,-2.5528,-2.5536,-2.5582,-2.5613,-2.5619,-2.5633,-2.5629,-2.5641,-2.5658,-2.5662,-2.5723,-2.5713,-2.5721,-2.5733,-2.5794,-2.5796,-2.5797,-2.5793,-2.5795,-2.5797,0,0,0,0,0,0,-2.5495,-2.5528,-2.5533,-2.5564,-2.5586,-2.5615,-2.5629,-2.5635,-2.5658,-2.5658,-2.5675,-2.5682,-2.5711,-2.5726,-2.5714,-2.5764,-2.5758,-2.5762,-2.5753,-2.5755,-2.5756,-2.5752,-2.5716,0,0,0,0,0,-2.5497,-2.5519,-2.5548,-2.5572,-2.5583,-2.5604,-2.5619,-2.5628,-2.5651,-2.566,-2.568,-2.5702,-2.5726,-2.5742,-2.5765,-2.5797,-2.5804,-2.581,-2.5811,-2.5812,-2.5815,-2.5833,-2.5836,-2.5804,-2.5804,-2.5804,0,0,-2.5501,-2.5522,-2.5535,-2.5571,-2.5589,-2.5612,-2.5612,-2.5636,-2.5653,-2.5664,-2.5694,-2.5709,-2.5735,-2.5767,-2.5782,-2.578,-2.5825,-2.5815,-2.5815,-2.5817,-2.5835,-2.5838,-2.584,-2.5805,-2.5804,-2.5804,0,0,-2.5519,-2.5538,-2.556,-2.5579,-2.5606,-2.562,-2.5626,-2.5654,-2.5665,-2.5695,-2.5704,-2.5725,-2.5766,-2.5785,-2.5799,-2.5827,-2.5831,-2.5834,-2.5842,-2.5859,-2.5861,-2.5864,-2.5873,-2.5876,-2.5837,-2.5837,-2.5837,0,-2.552,-2.5555,-2.5571,-2.5595,-2.5611,-2.5622,-2.5646,-2.5663,-2.5696,-2.5707,-2.5705,-2.5757,-2.5776,-2.5811,-2.5818,-2.583,-2.5837,-2.583,-2.586,-2.5862,-2.5865,-2.5874,-2.5877,-2.5837,-2.5837,-2.5837,-2.5837,0,-2.5555,-2.5579,-2.5595,-2.5627,-2.5645,-2.5668,-2.5688,-2.5704,-2.5713,-2.5728,-2.5759,-2.5782,-2.581,-2.582,-2.5828,-2.5857,-2.5855,-2.5856,-2.5851,-2.5868,-2.5876,-2.588,-2.5837,-2.5837,-2.5837,-2.5837,0,0,-2.5568,-2.561,-2.5615,-2.563,-2.5662,-2.5681,-2.5705,-2.5733,-2.5747,-2.577,-2.5791,-2.5827,-2.5828,-2.5845,-2.5856,-2.5871,-2.5891,-2.587,-2.5871,-2.5872,-2.5924,-2.5922,-2.5926,-2.5895,-2.5896,-2.5896,-2.5921,0,-2.559,-2.5634,-2.5649,-2.5685,-2.5708,-2.572,-2.5741,-2.5763,-2.5778,-2.5799,-2.5816,-2.5841,-2.5841,-2.5851,-2.5867,-2.5885,-2.5901,-2.5884,-2.5914,-2.5915,-2.5906,-2.593,-2.5928,-2.5951,-2.5925,-2.5926,-2.5926,0,-2.5621,-2.5644,-2.5682,-2.5712,-2.5722,-2.5741,-2.5768,-2.5789,-2.5814,-2.5824,-2.5843,-2.5853,-2.588,-2.5875,-2.5911,-2.5899,-2.5913,-2.5924,-2.5925,-2.5927,-2.592,-2.5932,-2.5958,-2.5961,-2.5932,-2.5931,-2.5931,0,-2.5626,-2.5667,-2.5695,-2.5708,-2.5743,-2.5756,-2.5771,-2.5796,-2.5812,-2.5837,-2.5847,-2.5875,-2.5889,-2.591,-2.5928,-2.5922,-2.5963,-2.5959,-2.5972,-2.5971,-2.5978,-2.5977,-2.6006,-2.5989,-2.5989,-2.5989,-2.5989,0,-2.5648,-2.567,-2.5698,-2.5715,-2.5741,-2.576,-2.5785,-2.5801,-2.5824,-2.5844,-2.5857,-2.5876,-2.5899,-2.5921,-2.5935,-2.5964,-2.597,-2.5979,-2.5982,-2.5977,-2.5976,-2.5985,-2.5984,-2.599,-2.599,-2.599,-2.5989,0,-2.5657,-2.5676,-2.5708,-2.5739,-2.5747,-2.5765,-2.5791,-2.5809,-2.5825,-2.5851,-2.5858,-2.5884,-2.5911,-2.5931,-2.5966,-2.5975,-2.6005,-2.6009,-2.5996,-2.5998,-2.6009,-2.6008,-2.6044,-2.6049,-2.603,-2.603,-2.603,0,-2.5669,-2.5686,-2.5719,-2.5734,-2.5749,-2.5773,-2.579,-2.5809,-2.5826,-2.5857,-2.5871,-2.5899,-2.5922,-2.5965,-2.5987,-2.6014,-2.6018,-2.6029,-2.6022,-2.6017,-2.6017,-2.6016,-2.6017,-2.6029,-2.603,-2.603,-2.603,0,-2.5688,-2.5697,-2.572,-2.5747,-2.5767,-2.5789,-2.5812,-2.5823,-2.5847,-2.5865,-2.5893,-2.5912,-2.5948,-2.5975,-2.6005,-2.6021,-2.6029,-2.6032,-2.6036,-2.6031,-2.6022,-2.6026,-2.5998,-2.6031,-2.6031,-2.603,-2.603,-2.603,-2.5698,-2.5715,-2.5741,-2.5766,-2.5786,-2.5806,-2.5824,-2.5843,-2.5866,-2.5897,-2.5908,-2.5936,-2.5962,-2.6003,-2.602,-2.6043,-2.6042,-2.6049,-2.605,-2.6051,-2.605,-2.602,-2.6048,-2.6048,-2.6048,-2.6048,-2.6048,0,-2.5718,-2.5735,-2.5759,-2.579,-2.581,-2.5817,-2.5842,-2.5859,-2.5884,-2.5908,-2.5931,-2.5963,-2.599,-2.6015,-2.6043,-2.6057,-2.6061,-2.6064,-2.6062,-2.6066,-2.6049,-2.6042,-2.6059,-2.6059,-2.6059,-2.6059,-2.6059,-2.6059,-2.573,-2.5758,-2.577,-2.5808,-2.5826,-2.5854,-2.5868,-2.5887,-2.5906,-2.5941,-2.5964,-2.598,-2.6004,-2.6034,-2.606,-2.6067,-2.6076,-2.6077,-2.6084,-2.6068,-2.6067,-2.6066,-2.6059,-2.6079,-2.6079,-2.6099,-2.6099,-2.6099]},{"header":{"parameterUnit":"m.s-1","parameterCategory":1,"la1":30.2991,"la2":30.254,"lo1":-89.0895,"lo2":-89.0444,"dy":0.0017,"dx":0.0017,"nx":28,"ny":28,"refTime":"2023-04-03T21:00:00:Z","depth":0,"parameterNumber":3,"parameterNumberName":"V-component_of_WINDS"},"data":[0,0,0,0,0,0,0,0,0,0,0,0,0,0,0,0,0,0,0,0,0,0,0,0,0,0,0,0,0,0,0,0,0,0,0,0,0,0,0,0,0,0,0,0,0,0,0,0,0,0,0,0,0,0,0,0,0,0,5.1087,5.1088,0,5.1139,5.1139,5.114,5.1129,5.1129,5.1128,5.1127,5.1177,5.1179,5.1181,0,0,0,0,0,0,0,0,0,0,0,0,0,5.098,5.0982,5.1087,5.1088,5.1089,5.1139,5.1139,5.114,5.113,5.1128,5.1127,5.1126,5.1176,5.1178,5.1181,0,0,0,0,0,0,0,0,0,0,0,0,0,5.1029,5.0983,5.1087,5.109,5.109,5.1139,5.1139,5.114,5.113,5.1128,5.1127,5.1126,5.1175,5.1178,5.1181,5.123,0,0,5.1191,5.1193,0,0,0,0,0,0,0,0,5.1026,5.1032,5.1089,5.109,5.109,5.1126,5.112,5.117,5.113,5.1115,5.1127,5.1125,5.1161,5.1165,5.1178,5.1232,5.1234,5.1192,5.1194,5.1195,5.1196,0,0,0,0,0,0,0,5.1022,5.103,5.1108,5.1089,5.1091,5.1088,5.1093,5.1129,5.1145,5.1116,5.1115,5.1122,5.1161,5.1175,5.1179,5.1235,5.1192,5.1195,5.1197,5.1198,5.1336,5.1337,0,0,0,0,0,0,5.1019,5.1027,5.1106,5.1109,5.1054,5.1091,5.1097,5.1116,5.1144,5.1148,5.1123,5.1121,5.117,5.1175,5.1181,5.1242,5.1195,5.1198,5.12,5.1334,5.1336,5.1338,0,0,0,0,0,0,5.1016,5.1026,5.1104,5.1068,5.1078,5.1094,5.1116,5.1118,5.1132,5.115,5.1152,5.1134,5.1169,5.1176,5.1219,5.1243,5.12,5.1203,5.1332,5.1335,5.1337,5.1363,0,0,0,0,0,0,5.1013,5.1025,5.1043,5.1069,5.108,5.1141,5.1117,5.112,5.1138,5.1136,5.1161,5.1164,5.1168,5.1214,5.1222,5.1247,5.1205,5.133,5.1333,5.1336,5.136,5.1366,5.1372,0,0,0,0,0,5.1009,5.1047,5.1044,5.1054,5.1103,5.1143,5.1149,5.1154,5.114,5.1159,5.1171,5.1163,5.1239,5.1218,5.1227,5.1254,5.1328,5.1332,5.1336,5.1358,5.1365,5.1371,0,0,0,0,0,0,5.1022,5.105,5.1047,5.1094,5.1117,5.1141,5.1165,5.1161,5.1187,5.1184,5.1189,5.1195,5.1239,5.125,5.1227,5.1304,5.1282,5.1288,5.1295,5.1302,5.1308,5.1305,5.1208,0,0,0,0,0,5.103,5.106,5.1083,5.1123,5.1134,5.1148,5.1165,5.1168,5.119,5.1199,5.1214,5.1236,5.1265,5.1284,5.1312,5.1362,5.1369,5.1385,5.139,5.1395,5.14,5.1431,5.1439,5.135,5.135,5.135,0,0,5.1047,5.1067,5.1085,5.1126,5.1143,5.1175,5.1155,5.1188,5.1212,5.1203,5.1246,5.1258,5.1283,5.1331,5.1352,5.1342,5.1427,5.14,5.1403,5.1406,5.1436,5.1444,5.1452,5.1353,5.1352,5.1352,0,0,5.1096,5.1112,5.1149,5.1168,5.1195,5.1205,5.1213,5.1239,5.1248,5.1291,5.1286,5.1314,5.1363,5.1383,5.1399,5.1458,5.1453,5.1467,5.1497,5.1527,5.1534,5.154,5.1564,5.1572,5.1472,5.1472,5.1472,0,5.1113,5.1161,5.1167,5.1203,5.1222,5.1218,5.1255,5.1273,5.1307,5.1321,5.1308,5.1374,5.1389,5.1443,5.1458,5.1471,5.1482,5.1464,5.1532,5.1539,5.1545,5.1568,5.1576,5.1474,5.1474,5.1473,5.1473,0,5.1183,5.1217,5.1243,5.1279,5.1301,5.1337,5.1349,5.1371,5.1372,5.1383,5.1429,5.1448,5.1482,5.1495,5.1495,5.155,5.1543,5.1531,5.1509,5.1555,5.1577,5.1585,5.1476,5.1476,5.1475,5.1475,0,0,5.1239,5.1281,5.1291,5.1309,5.134,5.1366,5.1403,5.1438,5.1457,5.1482,5.1514,5.1558,5.1549,5.1568,5.157,5.1597,5.1647,5.1583,5.1583,5.1596,5.1711,5.1721,5.1731,5.1643,5.1645,5.1646,5.171,0,5.1292,5.1358,5.1367,5.1426,5.1458,5.1456,5.1489,5.1512,5.1524,5.1554,5.1566,5.1599,5.1583,5.1595,5.162,5.1635,5.167,5.163,5.1674,5.1676,5.167,5.1742,5.1751,5.1811,5.1718,5.172,5.1721,0,5.1362,5.1392,5.1455,5.1486,5.15,5.1529,5.1563,5.1591,5.1618,5.1625,5.1648,5.1648,5.1688,5.1664,5.1719,5.1692,5.1711,5.1721,5.1724,5.1729,5.1702,5.1751,5.1829,5.1839,5.1733,5.1732,5.1732,0,5.14,5.1455,5.1501,5.1516,5.1553,5.1574,5.159,5.1616,5.1637,5.1667,5.1681,5.1714,5.1733,5.1759,5.1769,5.175,5.1825,5.1801,5.1833,5.1833,5.185,5.1849,5.1934,5.1859,5.1858,5.1858,5.1858,0,5.1459,5.1498,5.152,5.1548,5.1593,5.1602,5.1646,5.1661,5.1685,5.1717,5.1716,5.1746,5.1757,5.1789,5.1797,5.1844,5.1851,5.1859,5.1861,5.186,5.186,5.1873,5.187,5.1861,5.186,5.186,5.1859,0,5.1509,5.1524,5.1575,5.1607,5.1616,5.1647,5.1675,5.1703,5.1715,5.1756,5.1766,5.1786,5.1824,5.1837,5.1881,5.1887,5.1942,5.1939,5.1934,5.1935,5.1967,5.1965,5.2066,5.2081,5.1993,5.1994,5.1995,0,5.1547,5.1578,5.1614,5.1636,5.1654,5.1689,5.1712,5.1723,5.1747,5.1782,5.1807,5.1845,5.1876,5.1937,5.1955,5.1991,5.1991,5.2024,5.1996,5.1995,5.1994,5.1993,5.1998,5.2029,5.203,5.2031,5.2031,0,5.1613,5.162,5.1654,5.1691,5.1719,5.1748,5.1776,5.1794,5.181,5.1837,5.1877,5.1902,5.195,5.1989,5.2026,5.2042,5.2041,5.204,5.205,5.205,5.2047,5.2052,5.195,5.2038,5.2037,5.2037,5.2036,5.2036,5.166,5.1689,5.172,5.1758,5.1781,5.1809,5.1838,5.1856,5.1889,5.1931,5.1935,5.1979,5.2008,5.2058,5.2077,5.2112,5.2103,5.2116,5.212,5.2124,5.2128,5.204,5.2118,5.2118,5.2118,5.2118,5.2118,0,5.1729,5.1749,5.1785,5.1826,5.1857,5.1853,5.1885,5.1911,5.1951,5.1978,5.2011,5.2058,5.2097,5.2119,5.2158,5.2182,5.2182,5.2192,5.2191,5.2196,5.2132,5.2121,5.2191,5.2191,5.2191,5.2191,5.2191,5.2191,5.1768,5.1818,5.1829,5.1891,5.1911,5.1956,5.1975,5.2001,5.2024,5.2078,5.2111,5.2125,5.2152,5.2194,5.2229,5.2235,5.225,5.2262,5.2267,5.2207,5.22,5.2193,5.2182,5.2264,5.2264,5.2328,5.2328,5.2329]}]]